AirNav   TITAN Aviation Fuels
 
 621 users online  

OK30 Grandcraft Landing Strip Airport
Langley, Oklahoma, USA

GOING TO LANGLEY?


FAA INFORMATION EFFECTIVE 17 JUNE 2021

Location

FAA Identifier: OK30
Lat/Long: 36-29-30.3020N 095-03-00.8660W
36-29.505033N 095-03.014433W
36.4917506,-95.0502406
(estimated)
Elevation: 827 ft. / 252 m (estimated)
Variation: 05E (1985)
From city: 1 mile N of LANGLEY, OK
Time zone: UTC -5 (UTC -6 during Standard Time)
Zip code: 74301

Airport Operations

Airport use: Private use. Permission required prior to landing
Activation date: 08/1969
Control tower: no
ARTCC: KANSAS CITY CENTER
FSS: MC ALESTER FLIGHT SERVICE STATION
Attendance: UNATNDD
Wind indicator: yes
Segmented circle: no

Airport Communications

WX AWOS-3 at GMJ (17 nm NE): 119.025 (918-786-8350)

Nearby radio navigation aids

VOR radial/distance  VOR name  Freq  Var
EOSr228/36.3NEOSHO VOR/DME117.3007E
TULr056/39.8TULSA VORTAC114.4008E

 
NDB name  Hdg/Dist  Freq  Var  ID
SILOAM SPRINGS300/32.728404ESLG ... .-.. --.

Airport Services

Airframe service: NONE
Powerplant service: NONE

Runway Information

Runway N/S

Dimensions: 3000 x 150 ft. / 914 x 46 m
Surface: turf
RUNWAY N  RUNWAY S
Traffic pattern: rightright
Obstructions: treestrees

Airport Ownership and Management from official FAA records

Ownership: Privately-owned
Owner: GRAND CRAFT, INC
LANGLEY, OK 74361
Manager: G E MOOTS
PO BOX 188
PRYOR, OK 74361
Phone 918-825-2822

Additional Remarks

LIVESTOCK ON ARPT. LANDING STRIP SMOOTH.
FOR CD CTC KANSAS CITY ARTCC AT 913-254-8508.

Instrument Procedures

There are no published instrument procedures at OK30.

Some nearby airports with instrument procedures:

1K8 - South Grand Lake Regional Airport (4 nm NE)
KGMJ - Grove Municipal Airport (17 nm NE)
H71 - Mid-America Industrial Airport (21 nm SW)
KGCM - Claremore Regional Airport (24 nm SW)
KMIO - Miami Regional Airport (26 nm N)
 
Loc | Ops | Rwys | IFR | FBO | Links
Com | Nav | Svcs | Stats | Notes
Area around OK30 (Grandcraft Landing Strip Airport)
 
Road maps at: MapQuest Bing Google
 
Aerial photo
No photo
 
Sectional chart

 
Airport distance calculator
Flying to Grandcraft Landing Strip Airport? Find the distance to fly.

From to OK30

Sunrise and sunset
Times for 22-Jun-2021
 Local
(UTC-5)
 Zulu
(UTC)
Morning civil twilight05:3310:33
Sunrise06:0411:04
Sunset20:4101:41
Evening civil twilight21:1102:11

Current date and time
Zulu (UTC)  22-Jun-2021 11:10:06
Local (UTC-5)  22-Jun-2021 06:10:06
 
METAR
KGMJ 
17nm NE 
221055Z AUTO 00000KT 10SM CLR 11/11 A3007 RMK AO2
KH71 
21nm SW 
221055Z AUTO 00000KT M1/4SM FG OVC001 12/11 A3004 RMK AO2
KGCM 
24nm SW 
221055Z AUTO 00000KT 7SM CLR 11/11 A3007 RMK AO2
KMIO 
26nm N 
221055Z AUTO 00000KT 10SM CLR 13/13 A3005 RMK AO2
KSLG 
33nm SE 
221056Z AUTO 09003KT 10SM CLR 12/12 A3007 RMK AO2 SLP178 T01170117 TSNO
TAF
KXNA 
38nm E 
220520Z 2206/2306 00000KT P6SM SKC TEMPO 2210/2213 2SM BR FM221600 16006KT P6SM FEW250
KTUL 
44nm SW 
220520Z 2206/2306 VRB03KT P6SM SKC FM221600 17008KT P6SM FEW250
KROG 
47nm E 
220520Z 2206/2306 00000KT P6SM SKC TEMPO 2210/2213 2SM BR FM221600 16006KT P6SM FEW250
KJLN 
48nm NE 
220520Z 2206/2306 00000KT P6SM SKC FM221600 20005KT P6SM SKC
NOTAMs
Click for the latest NOTAMs
NOTAMs are issued by the DoD/FAA and will open in a separate window not controlled by AirNav.

 

 
 

Would you like to see your business listed on this page?

 If your business provides an interesting product or service to pilots, flight crews, aircraft, or users of the Grandcraft Landing Strip Airport, you should consider listing it here.  To start the listing process, click on the button below
 
Add a business
 

Other Pages about Grandcraft Landing Strip Airport

Update a link
 
Copyright © AirNav, LLC. All rights reserved. Privacy Policy  Contact